Location: West Union
(35.3704°N, 89.9668°W)
Time: 06:07:56
(UTC+00:00)

Daily predictions for brighter satellites

Satellite Brightness Start Highest point End
(mag) Time Altitude Azimuth Time Altitude Azimuth Time Altitude Azimuth
Cosmos 1980 4.4 12:01:35 10° WSW 12:06:30 31° WNW 12:11:28 10° N
Cosmos 1725 Rocket 4.3 23:15:56 10° SSE 23:21:50 47° E 23:27:47 10° NNE
CZ-2D R/B 3.0 23:23:05 10° SSE 23:26:07 44° ENE 23:29:10 10° N
Cosmos 1340 Rocket 2.7 23:23:03 10° S 23:26:53 86° E 23:30:46 10° N
Cosmos 1802 Rocket 4.1 23:22:50 10° S 23:29:05 62° E 23:35:26 10° NNE
SL-16 R/B 4.1 23:23:40 10° N 23:29:20 37° WNW 23:34:59 10° SW
Cosmos 2242 Rocket 4.5 23:26:08 10° NNW 23:30:32 56° W 23:34:57 10° S
Thor Agena Rocket 4.0 23:26:13 10° S 23:31:24 69° WSW 23:36:39 10° NNW
Geosat FO 4.1 23:28:28 10° SSE 23:31:27 89° SW 23:34:23 10° NNW
Cosmos 2233 Rocket 4.5 23:27:42 10° SSE 23:33:23 38° E 23:39:08 10° NNE
Cosmos 1452 Rocket 4.0 23:34:44 10° NNW 23:39:56 68° WSW 23:45:06 10° S
Cosmos 2173 Rocket 4.3 23:34:50 10° SSW 23:41:06 72° W 23:47:18 10° N
Helios 1A Rocket 3.2 23:40:43 10° NE 23:43:46 31° E 23:46:49 10° SSE
Cosmos 1674 Rocket 3.5 23:40:46 10° N 23:45:10 87° E 23:49:29 10° S
SJ-6F 4.2 23:45:54 10° SSE 23:49:46 64° ENE 23:53:39 10° N
CZ-4C R/B 2.9 23:47:48 10° WSW 23:51:32 37° NW 23:56:03 10° NNE
ATLAS CENTAUR R/B 0.8 23:48:16 10° SSW 23:51:42 85° ESE 23:55:12 10° NNE
Tsikada Rocket 4.4 23:46:05 10° N 23:52:07 41° ENE 23:58:04 10° SSE
BREEZE-M DEB (TANK) 3.3 23:51:05 10° W 23:53:00 32° NNW 23:56:10 10° NE
Meteor 1-11 4.4 23:47:59 10° N 23:53:45 80° W 23:59:21 10° S
